Regional Weather Roundup
Issued by NWS

Home | Current Version | Previous Version | Text Only | Print | Product List | Glossary Off
Versions: 1 2 3 4 5 6 7 8 9 10 11 12 13 14 15 16 17 18 19 20 21 22 23 24 25 26 27 28 29 30 31 32 33 34 35 36 37 38 39 40 41 42 43 44 45 46 47 48 49 50

000
ASUS43 KDMX 270603
RWRIA

WEATHER ROUNDUP FOR IOWA
NATIONAL WEATHER SERVICE DES MOINES IA
100 AM CDT TUE SEP 27 2016

NOTE: "FAIR" INDICATES FEW OR NO CLOUDS BELOW 12,000 FEET WITH NO
SIGNIFICANT WEATHER AND/OR OBSTRUCTIONS TO VISIBILITY.

* - THESE STATIONS ARE NOT NWS STATIONS...THUS NOT UNDER NWS
QUALITY CONTROL.  THEY ALSO DO NOT REPORT WEATHER SUCH
AS PRECIPITATION OR FOG.

IAZ001>003-012>014-020>022-031>034-043>046-270700-
   NORTHWEST IOWA

CITY           SKY/WX    TMP DP  RH WIND       PRES   REMARKS
CARROLL *      CLEAR     52  43  71 W8        30.02F
CHEROKEE *     CLEAR     49  41  74 CALM      30.03S
DENISON *      CLEAR     46  45  93 SE3       30.02S
LE MARS *      CLEAR     48  43  81 CALM      30.05S
ORANGE CITY *  CLEAR     48  41  76 NW6       30.04S
SHELDON *      CLEAR     46  39  76 W6        30.01F
SIOUX CITY     CLEAR     50  44  80 W5        30.05S
6HR MIN TEMP:  50; 6HR MAX TEMP:  69;

SPENCER        CLEAR     44  38  79 W8        30.01F
6HR MIN TEMP:  41; 6HR MAX TEMP:  65;

STORM LAKE *   CLEAR     48  41  76 W9        30.03S
$$

IAZ055>058-069>071-079>083-090>094-270700-
   SOUTHWEST IOWA

CITY           SKY/WX    TMP DP  RH WIND       PRES   REMARKS
ATLANTIC *     CLEAR     48  46  93 S6        30.04F
AUDUBON *      CLEAR     48  43  81 CALM      30.04F
CLARINDA *       N/A     48  46  93 MISG      30.07F
COUNCIL BLFS * CLEAR     55  46  71 SW6       30.05F
CRESTON *      CLEAR     52  45  76 SW7       30.06S
HARLAN  *      CLEAR     50  45  81 CALM      30.07F
LAMONI         CLEAR     55  46  71 W8        30.04F
6HR MIN TEMP:  52; 6HR MAX TEMP:  66;

RED OAK *      CLEAR     50  48  93 CALM      30.05F
SHENANDOAH *   CLEAR     50  46  87 SW3       30.07F
$$

IAZ047>049-059>061-072>074-084-270700-
   CENTRAL IOWA

CITY           SKY/WX    TMP DP  RH WIND       PRES   REMARKS
AMES           CLEAR     57  44  62 NW12      29.99F
6HR MIN TEMP:  52; 6HR MAX TEMP:  66;

ANKENY *         N/A    N/A N/A N/A MISG        N/A
BOONE *        CLEAR     55  41  58 NW9       30.00S
CHARITON *       N/A     54  46  76 SW7       30.02F
DES MOINES     CLEAR     56  45  66 W6        30.00F
6HR MIN TEMP:  55; 6HR MAX TEMP:  68;

GRINNELL*      CLEAR     54  43  64 W7        29.99F
KNOXVILLE *    CLEAR     55  43  62 W9        29.99F
MARSHALLTOWN   CLEAR     51  43  74 W3        29.97F
6HR MIN TEMP:  51; 6HR MAX TEMP:  65;

NEWTON *       CLEAR     52  45  76 W8        29.99F
PELLA *        CLEAR     57  45  63 W8        30.01F
PERRY *          N/A     52  45  78 W7        30.01F
$$

IAZ004>006-015-016-023>025-035-036-270700-
   NORTH CENTRAL IOWA

CITY           SKY/WX    TMP DP  RH WIND       PRES   REMARKS
ALGONA *       CLEAR     48  39  71 W8        29.98F
CLARION *      CLEAR     48  41  76 W6        29.98F
ESTHERVILLE    CLEAR     45  37  73 W10       29.98F
6HR MIN TEMP:  44; 6HR MAX TEMP:  62;

FORT DODGE *   CLEAR     52  39  62 W3        30.01S
MASON CITY     CLEAR     48  37  65 W12       29.96F
6HR MIN TEMP:  47; 6HR MAX TEMP:  61;

FOREST CITY *    N/A     45  36  70 W6        29.95F
WEBSTER CITY * CLEAR     50  43  76 W8        29.97F
IOWA FALLS *     N/A     48  42  79 W6        29.99F
$$

IAZ007>011-017>019-026>030-037>042-050>054-066-270700-
   NORTHEAST IOWA

CITY           SKY/WX    TMP DP  RH WIND       PRES   REMARKS
CEDAR RAPIDS   CLEAR     49  43  80 W7        29.95F
6HR MIN TEMP:  49; 6HR MAX TEMP:  63;

CHARLES CITY * CLEAR     50  37  62 W7        29.94F
CLINTON *      CLEAR     48  43  82 W7        29.94F
DECORAH *      CLEAR     52  37  58 VRB6G13   29.89F
DUBUQUE        CLEAR     48  40  73 W9        29.92F
6HR MIN TEMP:  46; 6HR MAX TEMP:  61;

MONTICELLO *   CLEAR     50  43  76 SW6       29.93F
OELWEIN *      CLEAR     48  41  76 W9        29.94F
WATERLOO       CLEAR     52  40  63 W8        29.94F
6HR MIN TEMP:  52; 6HR MAX TEMP:  64;

$$

IAZ064-065-067-068-078-270700-
   EAST CENTRAL IOWA

CITY           SKY/WX    TMP DP  RH WIND       PRES   REMARKS
DAVENPORT      CLEAR     52  42  69 W8        29.95F
6HR MIN TEMP:  52; 6HR MAX TEMP:  65;

IOWA CITY      CLEAR     51  42  71 W5        29.98S
6HR MIN TEMP:  50; 6HR MAX TEMP:  63;

MUSCATINE *    CLEAR     55  43  62 SW10      29.97S
QUAD CITIES    CLEAR     54  42  64 W7        29.95F
6HR MIN TEMP:  54; 6HR MAX TEMP:  62;

$$

IAZ062-063-075>077-085>089-095>099-270700-
   SOUTHEAST IOWA

CITY           SKY/WX    TMP DP  RH WIND       PRES   REMARKS
BURLINGTON     CLEAR     57  45  64 W7        29.99F
6HR MIN TEMP:  53; 6HR MAX TEMP:  65;

FAIRFIELD *    CLEAR     55  45  67 SW6       30.00S
FORT MADISON * CLEAR     57  45  62 SW5       30.02S
KEOKUK *       CLEAR     55  45  67 SW8       30.02S
OSKALOOSA *      N/A     51  44  77 W8        30.00F
OTTUMWA        CLEAR     52  43  71 W6        30.00F
6HR MIN TEMP:  51; 6HR MAX TEMP:  64;

WASHINGTON *     N/A    N/A N/A N/A MISG        N/A
$$

ABBREVIATIONS USED IN REMARKS
   TC - TEMPERATURES IN CELSIUS
  WCI - WIND CHILL INDEX
   HX - HEAT INDEX
  VSB - VISIBILITY
$$





USA.gov is the U.S. government's official web portal to all federal, state and local government web resources and services.